Date,TemperatureHighF,TemperatureAvgF,TemperatureLowF,DewpointHighF,DewpointAvgF,DewpointLowF,HumidityHigh,HumidityAvg,HumidityLow,PressureMaxIn,PressureMinIn,WindSpeedMaxMPH,WindSpeedAvgMPH,GustSpeedMaxMPH,PrecipitationSumIn
2013-3-1,35,27,21,-100,-100,-100,0,0,100,0.00,40.00,0,-999,0,0.02
2013-3-2,44,34,27,-100,-100,-100,0,0,100,0.00,40.00,0,-999,0,0.00
2013-3-3,43,35,28,-100,-100,-100,0,0,100,0.00,40.00,0,-999,0,0.01
2013-3-4,34,29,10,-100,-100,-100,0,0,100,0.00,40.00,0,-999,0,0.02
2013-3-5,42,22,8,-100,-100,-100,0,0,100,0.00,40.00,0,-999,0,0.00
2013-3-6,49,32,22,-100,-100,-100,0,0,100,0.00,40.00,0,-999,0,0.01
2013-3-7,51,37,30,-100,-100,-100,0,0,100,0.00,40.00,0,-999,0,0.00
2013-3-8,45,36,29,-100,-100,-100,0,0,100,0.00,40.00,0,-999,0,0.01
2013-3-9,34,29,20,-100,-100,-100,0,0,100,0.00,40.00,0,-999,0,0.02
2013-3-10,34,24,15,-100,-100,-100,0,0,100,0.00,40.00,0,-999,0,0.02
2013-3-11,39,28,19,-100,-100,-100,0,0,100,0.00,40.00,0,-999,0,0.01
2013-3-12,43,34,29,-100,-100,-100,0,0,100,0.00,40.00,0,-999,0,0.00
2013-3-13,48,36,28,-100,-100,-100,0,0,100,0.00,40.00,0,-999,0,0.01
2013-3-14,53,39,30,-100,-100,-100,0,0,100,0.00,40.00,0,-999,0,0.00
2013-3-15,54,41,33,-100,-100,-100,0,0,100,0.00,40.00,0,-999,0,0.00
2013-3-16,43,38,31,-100,-100,-100,0,0,100,0.00,40.00,0,-999,0,0.01
2013-3-17,37,32,27,-100,-100,-100,0,0,100,0.00,40.00,0,-999,0,0.01
2013-3-18,36,28,19,-100,-100,-100,0,0,100,0.00,40.00,0,-999,0,0.01
2013-3-19,41,33,24,-100,-100,-100,0,0,100,0.00,40.00,0,-999,0,0.00
2013-3-20,43,31,20,-100,-100,-100,0,0,100,0.00,40.00,0,-999,0,0.01
2013-3-21,36,30,24,-100,-100,-100,0,0,100,0.00,40.00,0,-999,0,0.02
2013-3-22,36,26,18,-100,-100,-100,0,0,100,0.00,40.00,0,-999,0,0.02
2013-3-23,25,19,14,-100,-100,-100,0,0,100,0.00,40.00,0,-999,0,0.01
2013-3-24,19,13,7,-100,-100,-100,0,0,100,0.00,40.00,0,-999,0,0.01
2013-3-25,33,15,2,-100,-100,-100,0,0,100,0.00,40.00,0,-999,0,0.00
2013-3-26,47,29,14,-100,-100,-100,0,0,100,0.00,40.00,0,-999,0,0.01
2013-3-27,50,42,29,-100,-100,-100,0,0,100,0.00,40.00,0,-999,0,0.01
2013-3-28,53,39,30,-100,-100,-100,0,0,100,0.00,40.00,0,-999,0,0.01
2013-3-29,52,43,35,-100,-100,-100,0,0,100,0.00,40.00,0,-999,0,0.00
2013-3-30,48,39,31,-100,-100,-100,0,0,100,0.00,40.00,0,-999,0,0.00
2013-3-31,55,43,28,-100,-100,-100,0,0,100,0.00,40.00,0,-999,0,0.00